Location: ??
(35.5052°N, 139.7262°E)
Time: 02:29:43
(UTC+00:00)

Exosat Rocket - Pass Details

Date: 20 June 2021
Orbit: 761 x 2514 km, 72.3° (Epoch: 26 July)

Event Time Altitude Azimuth Distance (km) Brightness Sun altitude
Exits shadow 15:24:36 76° 279° (W) 1,053 4.0 -30.2°
Maximum altitude 15:24:42 76° 289° (WNW) 1,049 4.0 -30.2°
Drops below altitude 10° 15:30:16 10° 16° (NNE) 2,488 7.1 -30.0°
Sets 15:32:26 0° 18° (NNE) 3,335 8.0 -29.9°
